User: anonymous   Login
Location: Unspecified
(0.0000°N, 0.0000°E)
Time: 18:52:58
(UTC+00:00)
Language:

50 SAT - Orbit

View from above orbital plane
View from above orbital plane
View from above satellite
View from above satellite

Ground track
Ground track

The orbit data is extracted from the following two-line orbital elements,

1 39436U 13066W   17145.79199553 +.00016883 +00000-0 +48100-3 0  9999
2 39436 097.7077 250.6751 0012602 158.4903 201.6872 15.36091302192065
Epoch (UTC): 25 May 2017 19:00:28
Eccentricity: 0.0012602
inclination: 97.7077°
perigee height: 449 km
apogee height: 466 km
right ascension of ascending node: 250.6751°
argument of perigee: 158.4903°
revolutions per day: 15.36091302
mean anomaly at epoch: 201.6872°
orbit number at epoch: 19206

The dashed part of the orbit path shows where the satellite is in the earth's shadow,  

DLR